QPF
0.05 0.06 0.06 0.06 0.07 0.06 0.05 0.05 0.06 0.04 0.02 0.01 0.01 0.02 0.02 0.02 0.02 0.03 0.03 0.02 0.01 0.02 0.02 0.02 0.02 0.02 0.02 0.03 0.03 0.03 0.04 0.05 0.03 0.02 0.03 0.04 0.04 0.03
0.04 0.07 0.08 0.07 0.07 0.06 0.05 0.06 0.06 0.05 0.03 0.01 0.01 0.01 0.02 0.02 0.02 0.02 0.03 0.02 0.01 0.01 0.01 0.01 0.01 0.02 0.02 0.03 0.03 0.03 0.04 0.05 0.04 0.04 0.03 0.03 0.03 0.03
0.05 0.06 0.07 0.08 0.07 0.05 0.05 0.05 0.05 0.05 0.03 0.02 0.01 0.02 0.02 0.02 0.02 0.03 0.02 0.02 0.01 0.01 0.01 0.01 0.01 0.01 0.01 0.04 0.05 0.03 0.03 0.06 0.05 0.04 0.04 0.03 0.03 0.03
0.06 0.06 0.06 0.07 0.07 0.06 0.05 0.04 0.04 0.04 0.04 0.03 0.03 0.02 0.02 0.01 0.02 0.03 0.03 0.03 0.02 0.01 0.01 0.01 0.00 0.00 0.01 0.02 0.06 0.05 0.03 0.05 0.06 0.04 0.04 0.04 0.04 0.04
0.05 0.06 0.06 0.05 0.06 0.04 0.04 0.03 0.03 0.03 0.03 0.02 0.02 0.02 0.02 0.02 0.02 0.02 0.02 0.03 0.02 0.01 0.01 0.01 0.01 0.01 0.01 0.01 0.05 0.07 0.05 0.06 0.07 0.05 0.04 0.04 0.03 0.03
0.04 0.04 0.04 0.04 0.04 0.04 0.03 0.02 0.03 0.02 0.03 0.03 0.02 0.02 0.02 0.02 0.02 0.02 0.02 0.02 0.03 0.02 0.01 0.00 0.00 0.01 0.01 0.01 0.03 0.07 0.06 0.08 0.09 0.07 0.06 0.05 0.04 0.04
0.03 0.03 0.03 0.03 0.03 0.02 0.02 0.02 0.02 0.02 0.02 0.02 0.02 0.03 0.03 0.02 0.02 0.02 0.02 0.02 0.03 0.02 0.02 0.01 0.01 0.01 0.01 0.01 0.02 0.04 0.05 0.06 0.07 0.06 0.06 0.05 0.04 0.03
0.04 0.04 0.03 0.03 0.03 0.03 0.02 0.02 0.02 0.02 0.02 0.02 0.03 0.04 0.03 0.02 0.02 0.02 0.02 0.03 0.03 0.03 0.02 0.01 0.01 0.01 0.01 0.02 0.03 0.03 0.04 0.04 0.04 0.04 0.05 0.05 0.04 0.03
0.03 0.04 0.04 0.04 0.03 0.03 0.02 0.02 0.02 0.02 0.01 0.02 0.03 0.03 0.03 0.02 0.02 0.02 0.02 0.02 0.03 0.04 0.02 0.01 0.01 0.01 0.01 0.03 0.05 0.06 0.05 0.04 0.03 0.03 0.04 0.04 0.04 0.03
0.02 0.03 0.04 0.04 0.04 0.03 0.03 0.02 0.01 0.01 0.01 0.01 0.01 0.01 0.02 0.02 0.03 0.03 0.02 0.02 0.02 0.03 0.02 0.01 0.01 0.01 0.02 0.04 0.06 0.09 0.09 0.08 0.05 0.04 0.03 0.03 0.03 0.03
0.02 0.02 0.03 0.03 0.03 0.03 0.02 0.02 0.01 0.01 0.02 0.02 0.02 0.02 0.02 0.02 0.03 0.04 0.03 0.02 0.02 0.02 0.02 0.02 0.01 0.01 0.02 0.04 0.06 0.08 0.09 0.07 0.06 0.04 0.03 0.02 0.02 0.02
0.02 0.02 0.02 0.02 0.02 0.02 0.01 0.01 0.01 0.01 0.03 0.03 0.02 0.01 0.02 0.02 0.03 0.04 0.04 0.03 0.02 0.02 0.02 0.03 0.02 0.02 0.03 0.05 0.06 0.08 0.08 0.06 0.05 0.04 0.03 0.02 0.02 0.01
0.01 0.01 0.01 0.01 0.02 0.02 0.02 0.02 0.03 0.04 0.04 0.03 0.02 0.02 0.01 0.01 0.03 0.04 0.04 0.04 0.03 0.02 0.02 0.03 0.02 0.03 0.04 0.04 0.05 0.07 0.07 0.06 0.05 0.04 0.03 0.02 0.01 0.01
0.01 0.01 0.01 0.02 0.02 0.03 0.03 0.03 0.04 0.04 0.03 0.04 0.03 0.01 0.01 0.01 0.01 0.03 0.03 0.03 0.03 0.02 0.01 0.01 0.02 0.02 0.04 0.05 0.05 0.06 0.06 0.05 0.05 0.04 0.03 0.03 0.02 0.02
0.02 0.02 0.02 0.02 0.02 0.02 0.02 0.03 0.03 0.02 0.02 0.02 0.01 0.01 0.01 0.01 0.01 0.01 0.02 0.03 0.03 0.03 0.02 0.01 0.03 0.04 0.03 0.04 0.04 0.05 0.05 0.05 0.05 0.04 0.03 0.02 0.02 0.01
0.03 0.02 0.02 0.02 0.02 0.02 0.02 0.02 0.02 0.01 0.00 0.01 0.01 0.01 0.01 0.01 0.01 0.01 0.01 0.03 0.03 0.04 0.04 0.03 0.02 0.03 0.03 0.02 0.02 0.03 0.03 0.04 0.04 0.03 0.02 0.02 0.01 0.01
0.02 0.02 0.01 0.01 0.01 0.01 0.01 0.01 0.01 0.01 0.01 0.01 0.01 0.01 0.01 0.01 0.01 0.01 0.02 0.02 0.03 0.03 0.04 0.04 0.04 0.03 0.03 0.02 0.01 0.02 0.02 0.02 0.02 0.02 0.02 0.02 0.01 0.01
0.01 0.01 0.01 0.01 0.01 0.01 0.01 0.01 0.01 0.01 0.01 0.01 0.01 0.01 0.01 0.01 0.02 0.02 0.03 0.03 0.03 0.02 0.03 0.04 0.05 0.05 0.03 0.01 0.01 0.01 0.01 0.01 0.02 0.02 0.02 0.02 0.01 0.01
0.01 0.01 0.01 0.01 0.01 0.01 0.01 0.01 0.01 0.01 0.01 0.01 0.01 0.02 0.02 0.02 0.02 0.03 0.03 0.03 0.02 0.02 0.02 0.02 0.03 0.04 0.02 0.01 0.01 0.01 0.01 0.01 0.02 0.02 0.02 0.01 0.01 0.01
0.01 0.01 0.01 0.00 0.00 0.00 0.00 0.00 0.00 0.01 0.01 0.01 0.01 0.02 0.02 0.02 0.03 0.03 0.03 0.03 0.03 0.02 0.01 0.02 0.02 0.02 0.01 0.01 0.01 0.02 0.03 0.03 0.03 0.03 0.02 0.02 0.01 0.01
0.01 0.00 0.00 0.00 0.00 0.00 0.00 0.00 0.00 0.01 0.01 0.01 0.01 0.02 0.02 0.02 0.03 0.03 0.03 0.03 0.03 0.03 0.02 0.02 0.02 0.02 0.02 0.02 0.02 0.02 0.03 0.04 0.04 0.03 0.03 0.02 0.01 0.01
0.00 0.00 0.00 0.00 0.00 0.00 0.00 0.00 0.01 0.01 0.01 0.01 0.01 0.01 0.02 0.03 0.03 0.03 0.02 0.03 0.03 0.03 0.03 0.02 0.02 0.03 0.03 0.03 0.03 0.03 0.03 0.03 0.03 0.04 0.04 0.03 0.01 0.01
0.01 0.01 0.01 0.01 0.01 0.01 0.01 0.01 0.01 0.01 0.02 0.02 0.02 0.02 0.02 0.03 0.03 0.03 0.03 0.03 0.03 0.03 0.03 0.03 0.02 0.02 0.03 0.03 0.04 0.04 0.04 0.04 0.03 0.02 0.03 0.02 0.02 0.02
MSLP
1020.29 1020.56 1020.83 1021.09 1021.28 1021.41 1021.44 1021.38 1021.25 1021.06 1020.82 1020.56 1020.26 1019.94 1019.59 1019.22 1018.81 1018.39 1017.96 1017.54 1017.16 1016.84 1016.57 1016.36 1016.20 1016.05 1015.92 1015.77 1015.59 1015.38 1015.15 1014.92 1014.69 1014.49 1014.30 1014.14 1014.00 1013.86
1020.78 1021.01 1021.23 1021.42 1021.56 1021.64 1021.64 1021.58 1021.45 1021.28 1021.07 1020.82 1020.53 1020.21 1019.84 1019.42 1018.96 1018.47 1017.98 1017.50 1017.06 1016.68 1016.36 1016.11 1015.90 1015.71 1015.54 1015.35 1015.13 1014.90 1014.64 1014.39 1014.15 1013.95 1013.78 1013.65 1013.54 1013.45
1021.15 1021.33 1021.49 1021.62 1021.71 1021.74 1021.73 1021.67 1021.57 1021.43 1021.26 1021.06 1020.80 1020.49 1020.11 1019.67 1019.17 1018.63 1018.07 1017.53 1017.03 1016.58 1016.20 1015.89 1015.63 1015.39 1015.16 1014.92 1014.65 1014.37 1014.08 1013.80 1013.55 1013.35 1013.19 1013.09 1013.02 1012.98
1021.41 1021.54 1021.64 1021.71 1021.75 1021.75 1021.73 1021.68 1021.60 1021.51 1021.40 1021.24 1021.02 1020.74 1020.36 1019.91 1019.38 1018.79 1018.18 1017.58 1017.01 1016.51 1016.07 1015.69 1015.37 1015.07 1014.78 1014.47 1014.16 1013.83 1013.50 1013.19 1012.93 1012.72 1012.59 1012.51 1012.49 1012.50
1021.61 1021.68 1021.72 1021.74 1021.73 1021.70 1021.66 1021.62 1021.58 1021.53 1021.45 1021.34 1021.16 1020.89 1020.53 1020.06 1019.51 1018.89 1018.24 1017.59 1016.97 1016.41 1015.91 1015.48 1015.09 1014.73 1014.38 1014.01 1013.64 1013.26 1012.90 1012.57 1012.30 1012.10 1011.98 1011.94 1011.96 1012.02
1021.78 1021.79 1021.78 1021.75 1021.69 1021.64 1021.58 1021.54 1021.51 1021.47 1021.42 1021.33 1021.17 1020.92 1020.56 1020.09 1019.52 1018.88 1018.20 1017.51 1016.86 1016.26 1015.71 1015.23 1014.79 1014.37 1013.96 1013.54 1013.11 1012.69 1012.29 1011.95 1011.67 1011.48 1011.39 1011.38 1011.44 1011.55
1021.93 1021.91 1021.85 1021.77 1021.68 1021.59 1021.51 1021.45 1021.40 1021.36 1021.31 1021.21 1021.05 1020.79 1020.42 1019.95 1019.37 1018.73 1018.04 1017.34 1016.67 1016.04 1015.47 1014.95 1014.47 1014.00 1013.53 1013.06 1012.59 1012.13 1011.70 1011.33 1011.05 1010.87 1010.79 1010.81 1010.91 1011.05
1022.07 1022.02 1021.93 1021.83 1021.70 1021.58 1021.46 1021.36 1021.28 1021.20 1021.11 1020.98 1020.79 1020.51 1020.14 1019.65 1019.08 1018.44 1017.76 1017.08 1016.41 1015.79 1015.21 1014.67 1014.16 1013.65 1013.14 1012.63 1012.11 1011.60 1011.14 1010.75 1010.45 1010.26 1010.19 1010.23 1010.34 1010.51
1022.17 1022.11 1022.01 1021.89 1021.74 1021.58 1021.42 1021.27 1021.13 1021.00 1020.85 1020.67 1020.43 1020.12 1019.72 1019.24 1018.68 1018.06 1017.42 1016.77 1016.14 1015.53 1014.97 1014.43 1013.90 1013.37 1012.82 1012.26 1011.70 1011.15 1010.64 1010.21 1009.88 1009.67 1009.58 1009.61 1009.73 1009.91
1022.22 1022.16 1022.07 1021.94 1021.77 1021.58 1021.38 1021.18 1020.97 1020.76 1020.54 1020.30 1020.01 1019.66 1019.25 1018.77 1018.24 1017.66 1017.06 1016.46 1015.88 1015.33 1014.79 1014.27 1013.74 1013.19 1012.62 1012.02 1011.40 1010.80 1010.24 1009.75 1009.37 1009.12 1008.99 1009.00 1009.10 1009.27
1022.18 1022.15 1022.07 1021.94 1021.77 1021.56 1021.32 1021.06 1020.79 1020.51 1020.22 1019.91 1019.58 1019.20 1018.78 1018.32 1017.81 1017.29 1016.75 1016.22 1015.70 1015.20 1014.71 1014.21 1013.69 1013.14 1012.55 1011.91 1011.25 1010.59 1009.97 1009.42 1008.97 1008.65 1008.47 1008.42 1008.48 1008.62
1022.08 1022.07 1022.01 1021.89 1021.72 1021.50 1021.23 1020.93 1020.60 1020.27 1019.92 1019.57 1019.19 1018.80 1018.38 1017.94 1017.48 1017.00 1016.53 1016.07 1015.61 1015.17 1014.72 1014.26 1013.76 1013.21 1012.61 1011.95 1011.25 1010.54 1009.86 1009.24 1008.72 1008.32 1008.06 1007.95 1007.95 1008.05
1021.93 1021.94 1021.90 1021.80 1021.63 1021.39 1021.11 1020.78 1020.42 1020.05 1019.67 1019.29 1018.90 1018.50 1018.10 1017.68 1017.26 1016.84 1016.42 1016.02 1015.62 1015.23 1014.82 1014.39 1013.91 1013.38 1012.77 1012.10 1011.38 1010.64 1009.91 1009.24 1008.65 1008.18 1007.85 1007.65 1007.59 1007.63
1021.76 1021.79 1021.76 1021.67 1021.50 1021.27 1020.97 1020.64 1020.27 1019.89 1019.50 1019.11 1018.73 1018.34 1017.95 1017.57 1017.18 1016.80 1016.43 1016.06 1015.71 1015.35 1014.97 1014.57 1014.12 1013.60 1013.01 1012.35 1011.64 1010.89 1010.14 1009.43 1008.80 1008.27 1007.87 1007.60 1007.46 1007.44
1021.62 1021.65 1021.62 1021.52 1021.36 1021.13 1020.84 1020.51 1020.15 1019.78 1019.41 1019.04 1018.68 1018.31 1017.95 1017.59 1017.23 1016.88 1016.53 1016.18 1015.84 1015.49 1015.14 1014.75 1014.32 1013.83 1013.28 1012.66 1011.97 1011.25 1010.53 1009.82 1009.17 1008.61 1008.16 1007.84 1007.63 1007.53
1021.51 1021.52 1021.49 1021.38 1021.21 1020.99 1020.71 1020.40 1020.07 1019.73 1019.40 1019.07 1018.74 1018.41 1018.08 1017.74 1017.39 1017.04 1016.69 1016.34 1015.99 1015.64 1015.28 1014.91 1014.50 1014.05 1013.55 1012.98 1012.37 1011.71 1011.04 1010.38 1009.75 1009.20 1008.73 1008.36 1008.10 1007.94
1021.42 1021.41 1021.35 1021.24 1021.06 1020.84 1020.58 1020.30 1020.01 1019.72 1019.44 1019.16 1018.88 1018.59 1018.28 1017.96 1017.62 1017.26 1016.88 1016.51 1016.13 1015.76 1015.40 1015.03 1014.65 1014.24 1013.80 1013.31 1012.79 1012.22 1011.64 1011.06 1010.50 1009.98 1009.53 1009.15 1008.85 1008.64
1021.31 1021.28 1021.20 1021.07 1020.89 1020.68 1020.44 1020.20 1019.96 1019.73 1019.50 1019.28 1019.05 1018.80 1018.52 1018.21 1017.86 1017.49 1017.09 1016.67 1016.26 1015.86 1015.48 1015.11 1014.75 1014.38 1014.01 1013.62 1013.20 1012.75 1012.29 1011.81 1011.34 1010.89 1010.48 1010.11 1009.80 1009.54
1021.15 1021.10 1021.00 1020.85 1020.67 1020.47 1020.27 1020.06 1019.88 1019.71 1019.54 1019.38 1019.20 1019.00 1018.75 1018.45 1018.10 1017.70 1017.27 1016.82 1016.37 1015.94 1015.54 1015.16 1014.82 1014.50 1014.20 1013.89 1013.58 1013.26 1012.91 1012.55 1012.18 1011.82 1011.46 1011.13 1010.83 1010.55
1020.89 1020.83 1020.72 1020.57 1020.39 1020.21 1020.04 1019.88 1019.75 1019.63 1019.53 1019.43 1019.31 1019.14 1018.92 1018.63 1018.28 1017.87 1017.42 1016.94 1016.46 1016.01 1015.58 1015.21 1014.88 1014.60 1014.35 1014.12 1013.90 1013.68 1013.45 1013.20 1012.93 1012.66 1012.37 1012.09 1011.80 1011.53
1020.52 1020.46 1020.34 1020.20 1020.04 1019.89 1019.75 1019.64 1019.56 1019.50 1019.46 1019.41 1019.34 1019.21 1019.02 1018.75 1018.40 1017.99 1017.53 1017.04 1016.54 1016.06 1015.63 1015.25 1014.93 1014.67 1014.46 1014.28 1014.13 1013.99 1013.84 1013.68 1013.50 1013.30 1013.08 1012.85 1012.61 1012.35
1020.04 1019.98 1019.89 1019.76 1019.63 1019.51 1019.41 1019.35 1019.32 1019.31 1019.32 1019.32 1019.29 1019.20 1019.03 1018.79 1018.46 1018.05 1017.59 1017.10 1016.60 1016.11 1015.67 1015.29 1014.97 1014.72 1014.52 1014.37 1014.25 1014.15 1014.05 1013.94 1013.82 1013.68 1013.52 1013.33 1013.13 1012.91
1019.47 1019.43 1019.36 1019.27 1019.17 1019.09 1019.04 1019.03 1019.04 1019.09 1019.14 1019.17 1019.17 1019.11 1018.97 1018.75 1018.44 1018.05 1017.61 1017.12 1016.63 1016.15 1015.71 1015.32 1015.00 1014.73 1014.53 1014.37 1014.24 1014.14 1014.05 1013.96 1013.86 1013.75 1013.62 1013.48 1013.32 1013.15
Thickness
5672 5670 5668 5667 5665 5664 5662 5659 5654 5648 5648 5652 5653 5656 5655 5654 5654 5652 5651 5650 5649 5647 5646 5643 5641 5640 5638 5636 5635 5634 5633 5632 5630 5629 5629 5628 5627 5628
5668 5666 5665 5663 5661 5660 5658 5657 5655 5650 5646 5649 5649 5650 5651 5650 5649 5648 5647 5646 5645 5643 5642 5639 5637 5636 5634 5632 5631 5630 5629 5627 5625 5624 5623 5622 5622 5622
5663 5662 5661 5660 5657 5655 5654 5652 5650 5648 5644 5645 5645 5646 5645 5644 5644 5643 5642 5641 5640 5639 5637 5636 5634 5632 5630 5628 5627 5625 5624 5622 5620 5619 5618 5617 5617 5617
5660 5658 5656 5655 5652 5650 5649 5647 5646 5644 5641 5639 5639 5640 5640 5640 5638 5637 5637 5636 5634 5634 5632 5631 5629 5628 5626 5624 5622 5621 5619 5617 5615 5614 5612 5612 5611 5611
5656 5654 5652 5650 5647 5645 5643 5642 5641 5640 5638 5635 5633 5633 5633 5634 5632 5631 5631 5630 5630 5629 5628 5627 5625 5623 5622 5620 5618 5616 5614 5612 5611 5609 5607 5606 5605 5605
5653 5651 5649 5647 5644 5642 5640 5638 5637 5634 5632 5629 5627 5626 5626 5627 5625 5623 5622 5622 5622 5624 5623 5622 5621 5619 5617 5615 5613 5611 5609 5607 5606 5604 5603 5601 5600 5599
5648 5647 5646 5645 5643 5640 5638 5635 5633 5630 5626 5623 5621 5619 5619 5619 5618 5617 5615 5615 5616 5618 5617 5617 5616 5614 5612 5610 5608 5606 5604 5602 5601 5599 5597 5596 5595 5594
5644 5643 5642 5641 5640 5638 5636 5634 5631 5627 5622 5619 5617 5615 5615 5615 5613 5612 5609 5607 5607 5612 5610 5610 5610 5608 5607 5605 5604 5601 5599 5597 5595 5593 5591 5589 5589 5588
5640 5638 5638 5638 5635 5633 5631 5629 5627 5625 5623 5619 5615 5613 5612 5612 5610 5608 5605 5603 5602 5606 5603 5603 5603 5602 5602 5600 5598 5595 5593 5590 5588 5587 5585 5584 5583 5582
5637 5636 5634 5633 5632 5629 5626 5623 5622 5620 5619 5617 5615 5613 5612 5610 5608 5606 5603 5601 5600 5601 5599 5596 5597 5596 5597 5594 5592 5589 5587 5584 5582 5580 5579 5578 5577 5576
5634 5633 5631 5629 5628 5625 5621 5618 5617 5616 5617 5615 5614 5611 5609 5607 5605 5601 5597 5594 5593 5594 5594 5591 5591 5589 5588 5587 5586 5583 5581 5579 5577 5575 5573 5572 5571 5571
5628 5628 5627 5625 5623 5621 5617 5614 5612 5612 5611 5610 5608 5607 5605 5604 5602 5599 5595 5591 5588 5587 5590 5587 5585 5582 5580 5581 5579 5577 5575 5573 5571 5569 5568 5566 5566 5565
5623 5622 5622 5621 5619 5617 5614 5611 5610 5608 5605 5603 5601 5601 5600 5599 5598 5596 5594 5590 5586 5584 5586 5582 5580 5576 5572 5572 5572 5572 5569 5567 5565 5564 5562 5561 5561 5561
5620 5619 5618 5617 5615 5613 5610 5609 5607 5604 5600 5597 5596 5596 5595 5595 5595 5594 5592 5590 5587 5585 5584 5580 5576 5572 5568 5566 5565 5566 5565 5563 5561 5559 5558 5557 5557 5557
5617 5616 5614 5612 5609 5607 5606 5604 5602 5599 5596 5593 5593 5593 5593 5592 5591 5590 5588 5586 5584 5582 5581 5578 5574 5571 5566 5563 5561 5560 5559 5558 5557 5555 5555 5553 5553 5553
5611 5610 5608 5606 5605 5603 5602 5600 5598 5596 5594 5592 5591 5591 5590 5588 5586 5585 5583 5581 5578 5577 5578 5576 5573 5569 5564 5562 5558 5556 5555 5553 5554 5552 5551 5551 5550 5550
5605 5603 5601 5600 5599 5598 5597 5596 5595 5593 5591 5590 5588 5587 5586 5585 5583 5582 5579 5576 5573 5571 5570 5570 5569 5566 5563 5559 5556 5554 5552 5551 5550 5548 5546 5546 5547 5547
5601 5598 5597 5597 5596 5595 5594 5594 5593 5591 5590 5589 5586 5584 5583 5581 5579 5577 5575 5572 5570 5568 5566 5565 5562 5559 5557 5556 5554 5552 5550 5548 5547 5545 5543 5542 5543 5544
5597 5596 5595 5594 5594 5593 5592 5591 5591 5590 5589 5586 5584 5582 5580 5578 5576 5573 5571 5568 5567 5565 5564 5561 5557 5554 5551 5550 5552 5551 5548 5546 5544 5542 5541 5539 5539 5541
5594 5594 5593 5593 5592 5591 5590 5589 5588 5586 5584 5582 5580 5578 5576 5574 5572 5570 5567 5565 5563 5562 5559 5557 5554 5552 5549 5548 5547 5547 5547 5544 5542 5540 5539 5537 5536 5537
5593 5592 5592 5591 5591 5589 5587 5586 5584 5583 5581 5579 5576 5574 5573 5571 5569 5567 5565 5564 5561 5558 5556 5555 5554 5553 5550 5546 5543 5543 5543 5542 5541 5539 5537 5534 5532 5532
5591 5591 5591 5590 5589 5587 5584 5582 5580 5579 5577 5575 5573 5571 5569 5568 5566 5565 5563 5561 5558 5556 5554 5553 5551 5549 5546 5543 5542 5541 5540 5540 5539 5537 5536 5535 5532 5530
5590 5589 5588 5587 5586 5584 5582 5579 5577 5575 5573 5572 5570 5568 5566 5565 5563 5562 5560 5558 5557 5554 5552 5549 5547 5545 5543 5541 5539 5538 5537 5536 5534 5533 5533 5533 5532 5532